• Em Portugal
  • Lista de países
  • Para 7 dias
  • Temperatura da água
  • Mapas de satélite
  • Mapa do tempo
  • Widgets de tempo
  • user-avatar
    Iniciar Sessão

    Previsão horária em Tiraspol

    Hoje, 18 Junho, Segunda-feira

    Tempo Temperatura Precipitação Vento Pressão Humidade
    00:00 +22°C° 0 mm 1 m/s 755 mmHg 79%
    01:00 +21°C° 0 mm 2 m/s 755 mmHg 80%
    02:00 +20°C° 0 mm 2 m/s 755 mmHg 80%
    03:00 +20°C° 0 mm 2 m/s 755 mmHg 81%
    04:00 +20°C° 0 mm 2 m/s 755 mmHg 81%
    05:00 +20°C° 0 mm 2 m/s 755 mmHg 81%
    06:00 +23°C° 0 mm 2 m/s 755 mmHg 76%
    07:00 +25°C° 0 mm 3 m/s 755 mmHg 70%
    08:00 +26°C° 0 mm 3 m/s 755 mmHg 65%
    09:00 +28°C° 0,2 mm 3 m/s 755 mmHg 59%
    10:00 +29°C° 0,2 mm 4 m/s 755 mmHg 53%
    11:00 +30°C° 0,2 mm 4 m/s 755 mmHg 47%
    12:00 +30°C° 0 mm 4 m/s 755 mmHg 46%
    13:00 +32°C° 0 mm 4 m/s 755 mmHg 44%
    14:00 +32°C° 0 mm 4 m/s 755 mmHg 42%
    15:00 +32°C° 0 mm 4 m/s 755 mmHg 42%
    16:00 +30°C° 0 mm 4 m/s 755 mmHg 42%
    17:00 +30°C° 0 mm 4 m/s 755 mmHg 42%
    18:00 +28°C° 0 mm 4 m/s 755 mmHg 47%
    19:00 +27°C° 0 mm 3 m/s 755 mmHg 51%
    20:00 +25°C° 0 mm 3 m/s 755 mmHg 56%
    21:00 +24°C° 0 mm 3 m/s 756 mmHg 58%
    22:00 +22°C° 0 mm 3 m/s 756 mmHg 60%
    23:00 +21°C° 0 mm 3 m/s 756 mmHg 61%

    Amanhã, 19 Junho, Terça-feira

    Tempo Temperatura Precipitação Vento Pressão Humidade
    00:00 +20°C° 0 mm 3 m/s 757 mmHg 63%
    01:00 +20°C° 0 mm 3 m/s 757 mmHg 64%
    02:00 +19°C° 0 mm 3 m/s 757 mmHg 65%
    03:00 +19°C° 0 mm 3 m/s 757 mmHg 67%
    04:00 +19°C° 0 mm 3 m/s 757 mmHg 69%
    05:00 +18°C° 0 mm 3 m/s 758 mmHg 71%
    06:00 +20°C° 0 mm 3 m/s 758 mmHg 66%
    07:00 +22°C° 0 mm 4 m/s 758 mmHg 61%
    08:00 +25°C° 0 mm 4 m/s 758 mmHg 57%
    09:00 +27°C° 0 mm 4 m/s 759 mmHg 50%
    10:00 +28°C° 0 mm 4 m/s 759 mmHg 44%
    11:00 +30°C° 0 mm 4 m/s 759 mmHg 38%
    12:00 +30°C° 0 mm 4 m/s 759 mmHg 36%
    13:00 +31°C° 0 mm 3 m/s 759 mmHg 34%
    14:00 +31°C° 0 mm 3 m/s 759 mmHg 32%
    15:00 +31°C° 0 mm 3 m/s 759 mmHg 34%
    16:00 +32°C° 0 mm 4 m/s 758 mmHg 35%
    17:00 +32°C° 0 mm 4 m/s 758 mmHg 36%
    18:00 +29°C° 0 mm 3 m/s 758 mmHg 42%
    19:00 +27°C° 0 mm 3 m/s 759 mmHg 49%
    20:00 +25°C° 0 mm 3 m/s 759 mmHg 56%
    21:00 +25°C° 0 mm 3 m/s 759 mmHg 59%
    22:00 +24°C° 0 mm 3 m/s 759 mmHg 62%
    23:00 +22°C° 0 mm 3 m/s 760 mmHg 65%

    Depois de amanhã, 20 Junho, Quarta-feira

    Tempo Temperatura Precipitação Vento Pressão Humidade
    00:00 +22°C° 0 mm 3 m/s 760 mmHg 67%
    01:00 +21°C° 0 mm 2 m/s 760 mmHg 70%
    02:00 +21°C° 0 mm 2 m/s 760 mmHg 72%
    03:00 +21°C° 0 mm 2 m/s 760 mmHg 73%
    04:00 +21°C° 0 mm 2 m/s 760 mmHg 75%
    05:00 +20°C° 0 mm 2 m/s 760 mmHg 76%
    06:00 +23°C° 0 mm 2 m/s 761 mmHg 70%
    07:00 +25°C° 0 mm 3 m/s 761 mmHg 64%
    08:00 +27°C° 0 mm 3 m/s 761 mmHg 58%
    09:00 +29°C° 0 mm 3 m/s 761 mmHg 53%
    10:00 +30°C° 0 mm 3 m/s 761 mmHg 49%
    11:00 +31°C° 0 mm 3 m/s 761 mmHg 45%
    12:00 +33°C° 0 mm 3 m/s 761 mmHg 44%
    13:00 +33°C° 0 mm 3 m/s 760 mmHg 43%
    14:00 +34°C° 0 mm 3 m/s 760 mmHg 42%
    15:00 +33°C° 0 mm 3 m/s 760 mmHg 45%
    16:00 +33°C° 0 mm 3 m/s 760 mmHg 47%
    17:00 +31°C° 0 mm 3 m/s 760 mmHg 50%
    18:00 +30°C° 0,2 mm 3 m/s 760 mmHg 56%
    19:00 +29°C° 0,2 mm 3 m/s 760 mmHg 61%
    20:00 +27°C° 0,2 mm 3 m/s 760 mmHg 67%
    21:00 +26°C° 0,4 mm 3 m/s 760 mmHg 71%
    22:00 +25°C° 0,4 mm 3 m/s 760 mmHg 76%
    23:00 +25°C° 0,4 mm 2 m/s 760 mmHg 80%

    21 Junho, Quinta-feira

    Tempo Temperatura Precipitação Vento Pressão Humidade
    00:00 +24°C° 0,2 mm 2 m/s 760 mmHg 82%
    01:00 +24°C° 0,2 mm 2 m/s 760 mmHg 84%
    02:00 +23°C° 0,2 mm 2 m/s 760 mmHg 87%
    03:00 +22°C° 0,2 mm 3 m/s 760 mmHg 88%
    04:00 +22°C° 0,2 mm 3 m/s 760 mmHg 88%
    05:00 +22°C° 0,2 mm 3 m/s 760 mmHg 89%
    06:00 +24°C° 0,1 mm 3 m/s 760 mmHg 82%
    07:00 +26°C° 0,1 mm 4 m/s 760 mmHg 76%
    08:00 +28°C° 0,1 mm 4 m/s 760 mmHg 69%
    09:00 +29°C° 0,4 mm 4 m/s 760 mmHg 63%
    10:00 +30°C° 0,4 mm 3 m/s 759 mmHg 57%
    11:00 +31°C° 0,4 mm 3 m/s 759 mmHg 51%
    12:00 +31°C° 0,1 mm 3 m/s 759 mmHg 51%
    13:00 +31°C° 0,1 mm 3 m/s 758 mmHg 51%
    14:00 +31°C° 0,1 mm 3 m/s 758 mmHg 50%
    15:00 +31°C° 0 mm 3 m/s 758 mmHg 51%
    16:00 +31°C° 0 mm 3 m/s 757 mmHg 52%
    17:00 +31°C° 0 mm 3 m/s 757 mmHg 52%
    18:00 +30°C° 0,2 mm 2 m/s 757 mmHg 56%
    19:00 +29°C° 0,2 mm 2 m/s 757 mmHg 60%
    20:00 +27°C° 0,2 mm 1 m/s 757 mmHg 63%
    21:00 +27°C° 0,2 mm 1 m/s 757 mmHg 66%
    22:00 +26°C° 0,2 mm 1 m/s 757 mmHg 68%
    23:00 +25°C° 0,2 mm 1 m/s 756 mmHg 71%

    22 Junho, Sexta-feira

    Tempo Temperatura Precipitação Vento Pressão Humidade
    00:00 +25°C° 0 mm 1 m/s 756 mmHg 72%
    01:00 +24°C° 0 mm 1 m/s 756 mmHg 74%
    02:00 +24°C° 0 mm 1 m/s 755 mmHg 75%
    03:00 +24°C° 0 mm 1 m/s 755 mmHg 76%
    04:00 +24°C° 0 mm 1 m/s 755 mmHg 77%
    05:00 +24°C° 0 mm 1 m/s 755 mmHg 78%
    06:00 +25°C° 0 mm 1 m/s 754 mmHg 71%
    07:00 +27°C° 0 mm 1 m/s 754 mmHg 65%
    08:00 +29°C° 0 mm 1 m/s 754 mmHg 59%
    09:00 +30°C° 0 mm 2 m/s 754 mmHg 52%
    10:00 +31°C° 0 mm 3 m/s 754 mmHg 45%
    11:00 +34°C° 0 mm 3 m/s 753 mmHg 38%
    12:00 +34°C° 0 mm 3 m/s 753 mmHg 36%
    13:00 +35°C° 0 mm 4 m/s 753 mmHg 34%
    14:00 +35°C° 0 mm 4 m/s 752 mmHg 33%
    15:00 +35°C° 0 mm 4 m/s 752 mmHg 34%
    16:00 +34°C° 0 mm 3 m/s 752 mmHg 36%
    17:00 +34°C° 0 mm 3 m/s 752 mmHg 37%
    18:00 +31°C° 0 mm 3 m/s 752 mmHg 43%
    19:00 +29°C° 0 mm 3 m/s 752 mmHg 48%
    20:00 +28°C° 0 mm 3 m/s 752 mmHg 53%
    21:00 +26°C° 0,1 mm 3 m/s 753 mmHg 58%
    22:00 +25°C° 0,1 mm 3 m/s 753 mmHg 64%
    23:00 +24°C° 0,1 mm 3 m/s 754 mmHg 69%

    23 Junho, Sábado

    Tempo Temperatura Precipitação Vento Pressão Humidade
    00:00 +22°C° 0 mm 4 m/s 754 mmHg 73%
    01:00 +21°C° 0 mm 5 m/s 754 mmHg 78%
    02:00 +21°C° 0 mm 6 m/s 754 mmHg 83%
    03:00 +20°C° 0,1 mm 6 m/s 754 mmHg 83%
    04:00 +18°C° 0,1 mm 7 m/s 755 mmHg 84%
    05:00 +17°C° 0,1 mm 7 m/s 755 mmHg 84%
    06:00 +17°C° 0,1 mm 7 m/s 755 mmHg 81%
    07:00 +17°C° 0,1 mm 7 m/s 756 mmHg 79%
    08:00 +17°C° 0,1 mm 7 m/s 756 mmHg 76%
    09:00 +18°C° 0 mm 7 m/s 756 mmHg 71%
    10:00 +21°C° 0 mm 7 m/s 756 mmHg 66%
    11:00 +22°C° 0 mm 6 m/s 756 mmHg 61%
    12:00 +23°C° 0 mm 6 m/s 756 mmHg 59%
    13:00 +24°C° 0 mm 6 m/s 756 mmHg 57%
    14:00 +26°C° 0 mm 6 m/s 756 mmHg 54%
    15:00 +26°C° 0 mm 6 m/s 756 mmHg 55%
    16:00 +26°C° 0 mm 6 m/s 756 mmHg 55%
    17:00 +26°C° 0 mm 6 m/s 756 mmHg 55%
    18:00 +23°C° 0 mm 6 m/s 756 mmHg 58%
    19:00 +22°C° 0 mm 5 m/s 757 mmHg 62%
    20:00 +21°C° 0 mm 4 m/s 757 mmHg 66%
    21:00 +20°C° 0 mm 4 m/s 757 mmHg 66%
    22:00 +19°C° 0 mm 4 m/s 758 mmHg 67%
    23:00 +18°C° 0 mm 4 m/s 758 mmHg 67%
    Mostrar mais